#timestamp,LO_Frequency,Hit,StdDev 
1630026015.0,286047000.0,N
1630026015.9,286047000.0,N
1630026035.8,286047000.2,N
1630026055.6,286047002.5,N
1630026075.5,286046999.8,N
1630026095.3,286047002.5,N
1630026115.1,286047001.3,N
1630026135.9,286047003.8,Y
1630026155.7,286047002.7,P
1630026175.5,286046999.8,N
1630026195.4,286046999.8,N
1630026215.2,286047000.6,N
1630026235.1,286047000.7,N
1630026236.0,286047000.7,N
1630026255.8,286046999.9,N
1630026275.6,286047000.0,N
1630026295.5,286047000.6,N
1630026315.3,286046999.7,N
1630026335.2,286047000.6,N
1630026355.9,286046999.9,N
1630026375.7,286047000.5,N
1630026395.6,286046999.7,N
1630026415.4,286047000.1,N
1630026435.2,286046999.8,N
1630026455.1,286047000.1,N
1630026456.0,286047000.1,N
1630026475.8,286046999.9,N
1630026495.7,286047000.3,N
1630026515.5,286047000.8,N
1630026535.3,286047001.0,N
1630026555.2,286047000.7,N
1630026575.9,286046999.8,N
1630026595.7,286046999.8,N
1630026615.6,286047002.5,Y
1630026635.4,286047000.1,P
1630026655.3,286047000.8,P
1630026675.1,286047002.1,P
1630026695.8,286047000.6,N
1630026715.7,286047002.7,Y
1630026735.5,286046999.9,P
1630026755.4,286046998.1,P
1630026775.2,286046998.3,N
1630026795.0,286046997.1,N
1630026795.9,286046997.1,N
1630026815.8,286046996.5,N
1630026835.6,286046999.1,N
1630026855.5,286046996.8,N
1630026875.3,286046999.3,N
1630026895.1,286046998.9,N
1630026915.9,286046999.5,N
1630026935.7,286046997.1,N
1630026955.5,286046997.7,N
1630026975.4,286046996.7,N
1630026995.2,286046997.4,N
1630027015.1,286046997.3,N
1630027016.0,286046997.3,N
1630027035.8,286046999.3,N
1630027055.6,286046998.6,N
1630027075.5,286046999.3,N
1630027095.3,286046998.2,N
1630027115.1,286046999.3,N
1630027135.9,286047002.8,N
1630027155.7,286047000.2,N
1630027175.6,286047002.8,N
1630027195.4,286046999.7,N
1630027215.2,286046999.9,N
1630027235.1,286047000.0,N
1630027236.0,286047000.0,N
1630027255.8,286047000.6,N
1630027275.6,286047002.7,N
1630027295.5,286047001.5,N
1630027315.3,286047002.6,N
1630027335.2,286047002.0,N
1630027355.9,286047000.3,N
1630027375.7,286046999.7,N
1630027395.6,286047001.6,N
1630027415.4,286047001.8,N
1630027435.2,286047001.8,N
1630027455.1,286047002.6,N
1630027456.0,286047002.6,N
1630027475.8,286046999.8,N
1630027495.7,286047000.8,N
1630027515.5,286046999.4,N
1630027535.4,286046999.4,N
1630027555.2,286047000.3,N
1630027575.0,286047001.2,N
1630027575.9,286047001.2,N
1630027595.8,286047000.9,N
1630027615.3,286046998.3,N
1630027635.1,286046998.2,N
1630027636.0,286046998.2,N
1630027655.8,286047000.5,N
1630027675.7,286046999.8,N
1630027695.5,286047000.1,N
1630027715.4,286047004.3,Y
1630027735.2,286047001.8,P
1630027755.0,286047004.0,P
1630027755.9,286047004.0,N
1630027775.8,286047004.2,N
1630027795.6,286047001.6,N
1630027815.4,286047001.8,N
1630027835.3,286047001.5,N
1630027855.1,286047002.1,N
1630027875.9,286046999.8,N
1630027895.7,286047000.7,N
1630027915.5,286046998.8,N
1630027935.4,286047001.1,N
1630027955.2,286047000.3,N
1630027975.0,286046998.5,N
1630027976.0,286046998.5,N
1630027995.8,286047000.0,N
1630028015.6,286047000.8,N
1630028035.5,286047002.5,N
1630028055.3,286047002.1,N
1630028075.2,286047000.4,N
1630028095.9,286046998.8,N
1630028115.7,286046998.1,N
1630028135.6,286046998.7,N
1630028155.4,286046999.4,N
1630028175.2,286046998.8,N
1630028195.1,286046996.7,N
1630028196.0,286046996.7,N
1630028215.8,286046997.1,N
1630028235.7,286046998.7,N
1630028255.5,286047000.7,N
1630028275.3,286047002.8,N
1630028295.2,286047002.3,N
1630028315.9,286046999.7,N
1630028335.7,286047000.0,N
1630028355.6,286047000.7,N
1630028375.4,286046998.6,N
1630028395.2,286046999.3,N
1630028415.1,286046998.2,N
1630028416.0,286046998.2,N
1630028435.8,286046998.7,N
1630028455.7,286046996.5,N
1630028475.5,286046998.8,N
1630028495.3,286046999.4,N
1630028515.2,286047000.5,N
1630028535.0,286047002.4,N
1630028535.9,286047002.4,N
1630028555.8,286047002.2,N
1630028575.6,286047003.9,N
1630028595.4,286047001.8,N
1630028615.3,286046998.6,N
1630028635.1,286046999.5,N
1630028655.8,286046999.8,N
1630028675.7,286047000.7,N
1630028695.5,286047000.1,N
1630028715.4,286047000.4,N
1630028735.2,286047000.3,N
1630028755.0,286047001.1,N
1630028755.9,286047001.1,N
1630028775.8,286047002.7,N
1630028795.6,286047002.2,N
1630028815.4,286047003.2,N
1630028835.3,286047004.3,N
1630028855.1,286047000.0,N
1630028875.9,286047000.9,N
1630028895.7,286046998.8,N
1630028915.5,286047000.4,N
1630028935.4,286047000.7,N
1630028955.2,286046999.8,N
1630028975.0,286047000.1,N
1630028975.9,286047000.1,N
1630028995.8,286047002.8,N
1630029015.6,286047002.6,N
1630029035.5,286047002.3,N
1630029055.3,286047002.7,N
1630029075.1,286047000.9,N
1630029095.9,286047001.2,N
1630029115.7,286046998.1,N
1630029135.6,286047000.2,N
1630029155.4,286047000.2,N
1630029175.2,286047000.8,N
1630029195.1,286047000.8,N
1630029196.0,286047000.8,N
1630029215.8,286046998.4,N
1630029235.6,286047001.2,N
1630029255.5,286047000.0,N
1630029275.3,286047001.9,N
1630029295.2,286047002.1,N
1630029315.9,286047002.0,N
1630029335.7,286046999.9,N
1630029355.6,286047000.0,N
1630029375.4,286046999.9,N
1630029395.2,286047000.6,N
1630029415.1,286047001.2,N
1630029416.0,286047001.2,N
1630029435.8,286046998.3,N
1630029455.7,286047000.5,N
1630029475.5,286047000.9,N
1630029495.3,286047000.0,N
1630029515.2,286047000.7,N
1630029535.0,286047002.3,N
1630029535.9,286047002.3,N
1630029555.7,286046999.7,N
1630029575.6,286047001.0,N
1630029595.4,286047002.5,N
